Location: Beneden-Haastrecht
(52.0012°N, 4.7557°E)
Time: 03:19:36
(UTC+00:00)

Resurs 01 Rocket - Pass Details

Date: 24 October 2020
Orbit: 634 x 644 km, 98.0° (Epoch: 27 November)

Event Time Altitude Azimuth Distance (km) Brightness Sun altitude
Exits shadow 20:28:48 13° 339° (NNW) 1,857 4.5 -36.7°
Drops below altitude 10° 20:29:15 10° 340° (NNW) 2,036 4.7 -36.8°
Sets 20:31:29 0° 344° (NNW) 2,948 5.6 -37.1°
